Location: Wilsall
(45.9940°N, 110.6590°W)
Time: 06:45:38
(UTC-07:00)

Daily predictions for brighter satellites

Satellite Brightness Start Highest point End
(mag) Time Altitude Azimuth Time Altitude Azimuth Time Altitude Azimuth
CSL-04 Debris 4.3 17:05:57 10° SSE 17:11:21 89° WSW 17:16:49 10° NNW
IRS-1A Rocket 4.2 17:07:29 10° SSE 17:12:59 80° ENE 17:18:34 10° NNW
Cosmos 1484 Rocket 4.3 17:11:41 10° E 17:13:50 15° ENE 17:15:58 10° NNE
Cosmos 1844 Rocket 3.5 17:08:28 10° SW 17:13:54 50° WNW 17:19:25 10° NNE
COSMOS 2487 2.4 17:10:36 10° NNW 17:14:12 70° ENE 17:17:46 10° SSE
YAOGAN 1 3.1 17:11:36 10° SE 17:15:35 37° ENE 17:19:35 10° N
Timation 2 Rocket 4.2 17:13:29 10° NNW 17:20:20 73° ENE 17:27:14 10° SE
CORIOLIS 4.4 17:15:28 10° SE 17:20:35 46° ENE 17:25:43 10° N
EO 1 Del DPAF 4.2 17:18:57 10° N 17:22:44 50° WNW 17:26:29 10° SSW
SPOT 3 Rocket 3.6 17:18:42 10° SSE 17:23:44 55° ENE 17:28:47 10° N
USA 32 4.1 17:19:27 10° S 17:24:41 85° W 17:29:56 10° N
CZ-2C R/B 3.7 17:22:00 10° NNE 17:26:29 85° WNW 17:31:01 10° SSW
CZ-3A R/B 4.3 17:05:27 10° WSW 17:26:42 65° NNW 17:32:03 10° NE
Cosmos 1812 2.8 17:23:37 10° S 17:27:29 86° WNW 17:31:22 10° N
Cosmos 1455 Rocket 3.4 17:23:49 10° NNW 17:28:14 70° W 17:32:39 10° S
Cosmos 1975 2.8 17:24:18 10° N 17:28:23 80° E 17:32:24 10° SSE
OE (NEXTSAT) 4.5 17:25:23 10° WSW 17:28:58 78° SSE 17:32:17 12° E
NOSS 2-1 (D) 4.1 17:25:45 10° S 17:29:16 35° ESE 17:32:52 12° NE
NOSS 2-1 (C) 4.2 17:26:25 10° S 17:29:57 35° ESE 17:33:32 12° NE
CZ-3B DEB 2.3 17:28:34 10° WSW 17:32:16 83° NW 17:41:21 11° NE
Cosmos 1238 Rocket 2.8 17:31:49 10° SSW 17:34:48 60° W 17:38:14 10° N
Nadezhda 3 Rocket 4.1 17:35:42 10° SSE 17:41:42 54° E 17:47:49 10° NNE
TIMED 4.5 17:40:34 10° SSW 17:44:53 70° ESE 17:49:16 10° NNE
CZ-4 R/B 1.6 17:41:53 10° S 17:46:01 76° WSW 17:50:07 10° NNW
SL-8 R/B 3.8 17:43:11 10° W 17:47:58 71° N 17:51:32 18° ENE
NOSS 2-1 (E) 3.7 17:44:50 10° SSW 17:48:36 49° ESE 17:51:46 17° NE
MOS 1 4.4 17:44:55 10° SSE 17:50:34 86° WSW 17:56:16 10° NNW
Cosmos 1809 Rocket 4.4 17:44:30 10° N 17:50:42 86° E 17:56:49 10° S
CZ-4 R/B 4.4 17:46:38 10° SSE 17:50:45 64° ENE 17:54:53 10° N
Thor Agena Rocket 3.5 17:47:46 10° NNE 17:53:01 75° ESE 17:58:17 10° S
Cosmos 1726 Rocket 4.4 17:52:07 10° NNE 17:56:01 29° ENE 17:59:55 10° SE
Cosmos 2297 3.7 17:50:31 10° SSW 17:56:09 85° ESE 18:01:50 10° NNE
Cosmos 1666 3.3 17:53:09 10° N 17:56:45 35° ENE 18:00:20 10° SE
COSMOS 2441 4.4 17:52:20 10° SSE 17:57:08 60° ENE 18:01:59 10° N
IDEFIX/ARIANE 42P 2.7 17:52:11 10° S 17:57:22 80° WSW 18:02:36 10° NNW
CZ-2C R/B 2.7 17:53:02 10° S 17:58:07 76° WSW 18:03:20 10° NNW
MSX 3.8 17:54:00 10° SSE 17:59:43 76° ENE 18:05:29 10° N
Cosmos 2278 Rocket 3.2 17:57:57 10° SW 18:03:22 45° WNW 18:08:49 10° NNE
Okean 1-7 Rocket 3.5 17:59:41 10° S 18:04:07 67° E 18:08:33 10° NNE
USA 234 3.4 17:59:08 17° ENE 18:04:13 61° SE 18:10:39 10° SW
Tiangong 1 1.7 18:03:42 10° WSW 18:06:39 45° S 18:07:57 26° ESE
SMAP 3.6 18:03:26 10° S 18:08:02 61° W 18:12:40 10° NNW
SL-24 DEB 4.3 18:07:24 10° N 18:12:10 84° W 18:16:50 10° S
Cosmos 1346 Rocket 3.7 18:10:41 10° SSW 18:14:27 48° WNW 18:18:13 10° N
Cosmos 1833 Rocket 3.3 18:09:10 10° NNW 18:14:43 61° WSW 18:20:14 10° S
ERBS 2.9 18:11:44 10° NW 18:14:56 36° NNE 18:15:11 36° NE
Cosmos 1606 Rocket 3.7 18:11:45 10° N 18:16:09 53° ENE 18:20:32 10° SSE
Cosmos 1934 Rocket 3.9 18:12:35 10° N 18:18:47 64° ENE 18:25:02 10° SSE
NOSS 3-4 (A) 3.9 18:14:32 10° NW 18:21:32 85° SW 18:28:59 10° SSE
NOSS 3-4 (C) 3.8 18:14:38 10° NW 18:21:39 85° SW 18:29:05 10° SE
Cosmos 1743 3.3 18:19:46 10° NNW 18:23:36 57° W 18:27:21 10° S
Cosmos 407 Rocket 3.4 18:20:33 10° NNW 18:25:40 65° ENE 18:30:49 10° SSE
Meteor 1-28 Rocket 4.0 18:26:39 33° ESE 18:26:39 33° ESE 18:29:28 10° SSE
COSMO-SKYMED 1 2.5 18:23:29 21° NNE 18:26:18 63° ESE 18:30:36 10° S
ISS -2.3 18:23:18 10° WNW 18:26:16 32° N 18:26:16 32° N
Cosmos 2082 Rocket 3.5 18:21:05 10° NW 18:26:24 42° WSW 18:31:42 10° S
Cosmos 921 Rocket 3.6 18:22:50 10° SSW 18:27:02 55° WNW 18:30:53 13° N
Cosmos 1025 Rocket 2.9 18:25:45 10° S 18:30:08 81° E 18:33:33 17° NNE
Cosmos 2056 Rocket 3.4 18:27:03 10° SSW 18:32:22 72° ESE 18:35:27 25° NNE
Cosmos 676 Rocket 3.9 18:33:18 10° NNW 18:38:29 61° ENE 18:43:16 12° SE
Cosmos 1954 Rocket 4.0 18:36:59 10° NNW 18:42:03 52° ENE 18:43:27 40° ESE
Cosmos 1624 Rocket 4.0 18:39:47 10° SSW 18:44:59 84° WNW 18:48:00 26° NNE
Cosmos 1484 Rocket 3.7 18:44:21 10° S 18:47:57 46° W 18:51:33 10° NNW
Cosmos 1371 Rocket 4.4 18:46:06 10° SSW 18:51:25 63° WNW 18:55:04 21° N
Cosmos 1140 Rocket 3.9 18:47:50 10° NNW 18:51:52 42° NNE 18:51:52 42° NNE
Cosmos 2058 Rocket 2.9 18:50:01 10° N 18:54:31 85° E 18:58:56 10° S
NOAA 12 4.0 18:52:46 10° SSE 18:58:02 89° ENE 19:03:19 10° NNW
Cosmos 1153 Rocket 4.3 18:54:30 10° N 19:00:39 64° E 19:06:43 10° SSE
BREEZE-M DEB (TANK) 3.8 18:58:50 10° WNW 19:03:19 52° NW 19:03:19 52° NW
Cosmos 2369 Rocket 2.6 19:00:09 10° S 19:04:42 45° SE 19:04:42 45° SE
Cosmos 1605 Rocket 4.0 19:00:08 10° N 19:06:27 83° W 19:12:37 10° S
Okean 2 4.0 19:08:05 10° SSW 19:12:10 56° WNW 19:12:40 52° NW
Cosmos 1340 4.2 19:10:43 10° SSW 19:12:45 30° SSW 19:12:45 30° SSW
Cosmos 1452 Rocket 3.7 19:15:53 10° SSW 19:20:14 62° S 19:20:14 62° S
GEOS 3 Rocket 3.8 19:34:26 67° W 19:34:26 67° W 19:39:04 10° NW
BREEZE-M R/B 4.1 19:30:40 10° W 19:37:33 53° NW 19:37:33 53° NW
USA 234 3.6 19:46:29 52° N 19:47:11 54° NNW 19:53:31 10° W
Cosmos 1727 Rocket 4.4 19:42:30 10° SSW 19:48:36 58° WNW 19:51:00 36° NNW
CZ-3B DEB 4.0 20:01:10 10° WNW 20:07:47 52° N 20:08:56 50° NNE
